Theta_e
337 335 333 334 335 336 335 333 334 335 333 333 334 334 332 333 340 345 346 341 333 331 333 332 332 333 332 332 332 331 332 331 331 330 330 330 329 329 329 330 331 331 332 332 332 332 332 332 332 332 331 331 331 331 331 331 331 331 331 331 331 332 331 331 331 330 329 328 327 327 326 324 322 320
337 336 334 333 333 335 334 333 335 335 335 334 333 334 332 332 335 338 342 343 333 328 331 331 332 333 332 332 332 332 333 332 332 332 331 331 331 331 331 332 332 333 333 333 332 333 332 332 332 332 332 331 331 331 331 331 331 331 331 331 331 331 331 331 331 330 330 329 328 327 327 326 324 323
337 337 335 333 332 334 334 334 336 336 335 335 333 333 333 333 334 332 335 340 335 328 329 331 332 332 331 332 332 332 332 332 332 332 331 331 331 330 330 330 329 330 331 332 332 332 332 332 332 332 332 332 332 332 332 332 331 331 331 331 331 331 331 330 330 330 330 329 328 327 326 325 324 324
338 337 335 333 333 333 334 335 336 336 335 335 334 334 334 333 334 332 331 334 334 330 329 331 331 331 331 332 332 331 332 332 331 330 329 329 328 328 328 328 327 327 328 329 330 330 329 329 330 331 332 333 333 333 332 332 332 331 331 331 331 331 330 330 330 329 329 328 328 327 326 326 325 325
338 337 334 334 334 334 334 335 336 336 336 335 334 334 334 334 334 333 331 331 332 331 330 330 331 331 331 332 332 332 332 332 330 330 329 329 329 329 328 328 327 325 325 326 327 328 329 329 329 331 332 333 333 332 332 332 332 332 331 331 331 330 330 329 329 329 329 328 328 328 327 327 327 326
338 337 335 335 336 336 336 335 336 336 335 335 334 333 334 334 333 333 333 332 332 332 332 331 331 332 333 332 332 332 332 332 331 331 331 330 330 329 329 328 327 325 324 325 326 328 329 329 329 330 330 331 331 331 331 331 331 331 330 330 330 329 329 329 329 329 328 328 328 328 328 328 327 327
337 338 336 335 336 337 337 336 336 336 336 335 334 334 334 334 334 334 334 334 334 334 333 333 333 334 333 333 333 332 332 333 333 332 332 332 331 331 331 329 326 325 325 325 326 328 329 329 329 329 329 329 329 329 329 329 329 329 329 329 329 328 328 328 328 328 328 328 328 328 328 328 328 328
337 338 337 336 337 337 337 337 336 336 336 335 334 334 334 335 335 335 335 335 334 334 334 334 335 335 335 335 334 333 333 333 334 334 333 333 332 331 330 328 325 325 325 326 327 328 328 329 329 328 328 328 327 327 327 326 326 327 327 328 328 328 328 327 327 327 327 327 327 327 327 328 327 328
338 338 338 337 337 338 337 336 336 336 336 335 335 335 335 336 336 336 335 335 335 335 335 335 335 336 336 335 334 334 333 334 334 334 334 333 333 332 330 327 325 324 325 325 327 327 328 329 329 328 328 327 326 325 323 322 323 324 325 325 326 326 326 326 326 326 326 326 326 327 327 327 327 327
339 338 339 338 337 337 337 336 335 337 337 336 336 335 336 336 336 336 335 335 335 335 335 336 336 336 336 336 335 334 334 334 334 334 334 334 333 332 330 327 325 325 325 325 327 327 327 327 327 327 326 324 322 321 320 321 320 320 321 321 321 320 320 320 321 322 323 324 325 326 326 326 325 325
340 339 339 339 338 337 337 336 335 336 337 336 336 336 336 336 336 336 335 335 336 336 336 336 336 336 336 336 335 335 334 334 334 334 334 334 333 332 330 327 326 326 326 326 327 327 326 326 325 324 322 320 319 318 318 319 318 319 318 318 318 318 318 318 318 318 319 320 321 322 322 323 322 322
341 341 339 339 338 337 337 337 336 336 337 336 336 336 336 336 336 336 336 336 336 336 335 336 336 336 336 335 335 335 335 334 334 334 333 333 333 331 329 327 326 326 327 327 327 326 325 325 324 323 321 319 318 318 318 318 318 318 318 318 318 318 318 319 319 319 319 320 320 320 320 320 320 320
341 340 340 339 339 338 338 337 337 337 337 336 336 336 336 336 336 336 336 336 336 335 335 335 335 335 334 335 335 334 334 334 333 333 332 332 331 330 329 327 326 326 327 327 326 325 325 325 324 322 320 319 319 319 319 319 319 319 319 318 318 319 319 319 318 319 319 319 320 319 319 320 320 320
341 340 340 339 339 339 339 338 338 338 338 337 337 336 336 335 336 336 336 336 336 336 336 335 335 335 335 335 335 334 333 332 331 331 330 330 330 330 329 328 326 326 328 327 327 326 325 324 322 320 320 320 320 320 320 320 320 320 320 320 319 319 319 319 318 317 317 317 317 317 317 317 317 318
341 341 340 339 339 339 338 338 338 338 338 337 337 337 336 336 335 335 336 337 336 336 336 336 336 335 335 335 334 332 331 331 330 330 329 329 330 329 328 328 327 327 328 327 327 326 324 322 321 321 320 320 320 320 320 320 320 319 320 320 320 320 319 319 319 318 317 316 316 316 316 316 316 316
342 342 341 340 340 339 338 338 338 338 338 338 337 337 337 337 336 335 336 337 337 337 336 336 335 334 334 334 333 332 332 332 330 329 328 329 329 328 328 328 328 328 328 327 327 326 323 321 321 321 320 320 320 319 319 318 318 318 318 318 318 318 318 317 316 316 315 315 314 314 314 314 314 314
343 342 341 341 340 339 338 337 337 338 338 338 338 337 337 337 337 336 337 338 338 337 337 335 335 334 333 332 333 333 332 332 330 329 328 328 328 328 328 328 328 328 328 327 325 324 322 321 321 320 319 319 318 318 317 316 315 315 314 313 313 313 312 312 311 311 312 312 312 312 312 313 314 314
344 343 342 341 340 339 339 338 338 339 339 338 339 338 338 338 337 337 338 338 338 337 337 336 335 334 333 332 334 334 332 331 330 329 328 328 328 328 328 328 329 328 327 325 323 322 321 320 320 319 318 318 316 315 314 314 312 311 310 309 310 310 310 311 312 312 313 313 314 314 315 315 316 317
344 343 342 341 340 339 339 338 337 338 339 339 339 339 338 338 338 337 338 338 339 338 337 335 333 333 333 333 333 332 332 331 329 328 328 328 329 329 329 328 327 326 324 322 321 321 320 318 319 318 316 315 314 312 311 310 309 308 308 309 309 310 311 311 312 313 314 314 315 316 316 317 317 318
343 343 342 341 340 340 340 339 337 338 339 339 339 339 339 338 338 338 338 339 338 337 335 334 334 334 334 333 332 331 330 330 328 328 328 328 328 328 327 326 324 323 322 319 319 320 319 317 317 317 314 313 311 310 308 308 308 308 309 309 309 309 309 310 311 311 312 313 315 316 317 317 317 317
343 343 342 341 340 340 340 340 338 339 339 339 339 339 339 338 338 338 338 337 336 335 334 334 335 334 333 332 332 330 329 328 327 327 327 327 326 325 325 324 323 321 319 318 317 318 318 315 314 314 312 310 310 309 308 308 308 309 309 308 308 308 307 308 308 309 310 311 313 316 317 317 316 316
342 343 342 342 341 341 341 341 340 339 339 339 339 339 338 337 337 336 336 336 335 334 334 334 334 333 332 331 330 329 327 326 326 326 325 324 323 323 323 324 322 319 317 316 316 316 315 312 312 312 311 310 310 309 308 308 308 309 308 308 307 307 307 307 307 307 308 310 312 315 316 316 315 316
342 342 342 342 342 341 342 341 341 340 340 339 338 339 338 336 336 336 336 335 334 333 333 333 333 332 330 329 328 327 326 326 325 324 323 321 322 322 321 321 320 318 317 315 313 313 313 312 311 311 312 312 312 309 308 309 308 308 307 307 307 307 307 308 308 309 309 311 313 314 315 315 315 316
341 341 342 342 342 341 342 341 341 340 340 339 338 338 337 336 336 337 336 334 333 333 333 333 331 330 328 327 327 327 327 325 323 321 320 320 321 320 318 316 316 316 315 312 311 311 312 311 310 310 311 312 312 310 309 308 308 307 307 307 307 307 308 309 310 311 312 313 314 315 314 314 315 316
342 341 341 342 341 341 341 341 340 340 339 338 338 336 336 337 336 335 333 332 332 333 333 332 330 328 327 327 327 326 324 321 318 318 319 320 320 318 317 315 314 313 312 310 309 309 310 310 310 310 310 311 312 311 310 308 307 307 307 307 307 307 308 309 311 312 313 314 314 314 314 314 314 315
342 342 342 341 341 341 341 340 339 339 338 338 336 336 337 336 333 332 331 332 333 333 331 329 328 327 326 326 324 321 318 316 316 318 319 319 318 317 316 314 312 311 310 309 308 308 309 309 309 309 310 311 312 312 311 310 308 306 307 307 307 307 307 308 309 311 312 313 313 313 313 313 314 315
344 343 342 341 341 341 340 339 338 338 337 337 336 337 336 333 331 331 332 333 334 332 330 327 327 326 324 322 319 317 316 318 319 319 319 318 317 316 314 312 311 310 309 308 307 307 308 308 307 308 309 310 312 313 312 311 308 307 306 306 306 306 306 306 307 308 309 310 311 311 312 313 314 314
346 344 343 342 341 341 340 339 338 337 337 337 336 335 332 330 331 332 333 334 333 330 327 326 325 324 321 318 315 316 318 320 320 319 318 316 315 314 313 312 310 309 308 307 307 306 307 307 307 307 307 308 310 311 311 310 308 307 307 307 306 306 306 306 306 307 308 309 310 311 312 313 313 314
346 344 343 342 341 340 339 338 337 337 337 335 332 330 330 331 333 333 334 334 331 328 326 326 325 322 319 315 314 316 320 321 320 319 318 317 316 315 314 313 310 308 307 307 306 306 306 306 306 306 306 307 308 308 308 309 308 307 307 307 307 306 306 307 308 308 309 310 311 311 312 312 313 313
344 343 342 341 340 339 338 337 337 337 335 331 330 332 334 335 334 334 334 333 330 328 327 326 323 320 316 315 315 317 318 319 320 319 319 318 317 315 313 311 309 307 306 306 306 306 305 305 305 306 306 306 306 306 306 307 308 307 305 306 307 307 307 308 308 309 310 310 311 311 312 312 312 313
341 340 340 339 338 337 336 335 334 332 330 332 335 336 335 335 334 334 333 331 329 328 326 323 320 317 316 315 316 316 317 318 319 319 319 319 318 315 311 308 307 307 306 306 306 305 305 305 305 306 306 305 306 305 305 306 307 306 305 305 306 307 308 308 309 310 310 310 311 311 312 312 313 313
339 338 337 335 335 334 332 331 330 331 334 337 337 334 333 333 333 331 330 329 328 326 323 320 318 317 316 316 316 316 317 318 318 319 318 317 315 311 308 306 306 306 306 306 305 305 304 305 305 305 305 305 305 305 305 305 305 305 305 306 306 307 308 309 309 310 310 310 311 312 312 313 314 314
337 335 334 333 332 331 330 330 333 336 337 337 335 333 333 332 331 330 329 327 325 323 321 320 318 317 317 317 317 317 317 318 319 318 316 314 311 308 306 306 306 305 304 304 305 304 304 305 305 305 305 305 304 304 304 304 305 306 306 306 306 307 309 309 309 310 310 310 311 313 314 314 315 314
336 334 333 332 331 331 331 333 336 337 337 336 334 333 333 332 330 329 328 326 324 322 321 319 319 318 318 317 317 317 318 319 319 317 314 311 308 306 306 305 305 304 304 304 304 304 304 305 305 304 304 304 304 304 305 305 306 307 307 307 307 307 309 310 309 309 310 311 312 314 314 314 314 313
334 333 331 330 331 332 334 335 337 337 336 335 334 333 333 332 330 328 326 325 323 322 321 320 320 319 318 318 318 319 319 318 316 314 310 307 306 305 305 305 304 304 304 304 304 304 305 305 305 305 305 305 305 306 305 305 306 307 307 308 308 308 309 309 309 310 310 312 313 313 313 312 312 312
333 331 331 330 331 334 335 335 336 336 335 334 333 333 332 330 328 327 325 324 323 323 322 322 321 320 320 320 320 319 317 315 313 310 307 306 306 305 304 304 304 304 303 304 304 304 305 305 304 305 307 307 307 307 307 306 307 308 307 307 309 309 308 309 309 310 311 312 313 312 312 311 311 311
331 330 331 332 333 334 335 335 335 335 334 332 331 331 329 328 326 325 324 324 323 323 323 323 322 321 320 318 317 315 313 312 310 307 306 306 305 304 304 303 304 303 303 304 304 305 305 305 304 305 306 306 306 307 307 307 307 309 308 308 309 309 308 309 310 311 312 312 312 311 311 310 309 309
331 331 332 332 334 335 336 335 335 334 332 331 329 328 327 326 325 323 323 322 323 323 323 322 320 318 316 314 313 312 311 310 308 307 306 305 304 303 303 303 303 303 303 304 304 304 305 305 304 304 305 306 306 306 307 307 307 308 308 308 309 309 309 309 311 311 311 311 311 310 309 309 308 307
332 332 333 333 335 336 335 334 334 332 330 329 327 326 325 323 322 321 321 321 320 320 319 318 315 313 312 312 311 311 310 308 307 306 305 304 303 303 303 303 303 303 303 304 304 305 305 304 303 303 304 305 305 305 305 306 307 308 308 308 309 309 309 309 310 311 310 310 309 308 307 307 307 306
332 332 333 334 334 335 334 333 333 331 328 327 325 324 322 320 319 319 319 318 317 316 314 313 312 312 311 310 309 308 307 306 305 305 304 303 303 303 303 303 303 303 304 304 304 304 304 304 303 303 303 304 304 304 305 306 308 309 309 308 308 308 308 309 309 310 309 308 307 307 306 306 306 305
330 330 331 332 332 333 333 332 330 328 325 324 322 320 319 318 318 318 318 316 315 314 312 312 312 311 310 309 308 307 307 306 305 304 304 304 303 303 303 303 303 303 304 305 305 304 304 304 303 303 304 304 304 305 308 310 311 311 310 308 308 309 308 308 307 307 307 306 306 306 306 305 305 304
329 329 330 330 331 332 332 329 327 325 323 322 320 318 318 318 318 317 316 315 314 313 312 312 311 311 310 309 308 308 307 306 304 304 303 303 303 303 302 302 303 303 304 305 304 304 303 303 303 303 304 304 304 306 309 312 312 312 310 308 308 309 308 308 307 307 306 305 305 305 305 305 304 304
328 329 329 330 331 331 329 326 324 323 321 319 318 318 317 317 316 315 315 314 313 313 312 312 311 311 310 309 309 308 307 305 304 304 303 303 303 302 302 302 303 303 304 304 304 303 303 303 303 304 304 304 304 305 308 311 311 311 311 309 308 308 308 307 308 307 306 305 304 304 304 304 303 303
328 329 330 331 331 329 326 323 322 321 319 318 318 317 317 316 315 314 314 313 313 312 312 311 310 310 309 309 308 307 305 304 303 303 303 303 303 302 302 302 303 304 304 303 303 303 303 303 303 304 304 305 305 305 308 310 311 311 310 309 308 307 307 306 307 307 306 305 304 304 303 302 302 301
329 330 331 331 329 326 323 322 320 319 318 318 317 316 315 315 315 314 313 312 312 311 310 309 309 309 308 307 307 306 304 303 303 303 303 302 301 300 301 302 303 304 304 303 303 303 303 303 303 304 305 305 306 307 308 309 310 309 309 308 308 307 306 305 305 306 306 305 304 304 302 301 300 299
Wind_Speed
20 19 18 18 18 16 13 12 11 9 8 8 9 10 11 9 4 1 1 2 6 9 11 11 9 8 7 6 6 6 5 5 5 6 6 6 7 9 10 12 13 15 16 16 16 17 18 18 18 18 17 17 17 16 15 15 15 15 15 15 15 14 14 14 15 15 15 15 14 13 12 11 11 11
22 20 19 19 19 17 15 13 12 10 8 8 9 9 10 10 9 6 3 3 6 7 9 11 10 9 7 5 5 6 5 4 4 4 5 6 7 9 11 12 14 14 15 15 15 16 16 16 16 16 16 16 16 16 16 16 15 14 14 14 14 15 15 15 15 15 15 15 14 14 13 12 11 11
23 22 21 20 19 18 16 14 13 12 10 9 8 8 10 10 11 10 6 2 5 7 8 9 11 9 6 5 5 5 4 4 4 4 5 6 8 10 11 13 14 15 15 15 15 14 15 15 16 15 15 15 16 16 16 16 16 15 14 14 14 15 15 16 16 15 15 15 14 14 13 13 12 11
24 23 22 21 20 19 17 16 14 13 12 11 10 9 10 10 10 10 9 5 6 8 8 8 10 9 6 6 5 4 3 2 3 4 4 6 8 10 11 13 13 14 13 13 13 13 14 15 15 15 15 15 16 16 17 17 17 16 15 15 15 15 15 15 16 15 15 14 14 14 14 14 14 13
26 25 24 23 21 20 19 17 16 15 14 13 12 11 11 12 11 11 11 9 8 8 9 10 10 9 7 6 5 4 3 2 3 5 6 8 10 11 13 14 14 14 13 13 13 13 14 14 14 14 14 15 15 16 17 17 17 17 17 17 17 16 15 15 15 15 15 15 15 15 15 15 16 15
27 26 25 24 23 21 20 19 17 16 16 15 14 14 13 14 13 12 12 11 9 9 9 9 9 8 6 6 5 5 5 4 6 7 8 10 12 13 14 15 16 15 15 15 15 15 14 13 13 13 13 14 14 14 15 15 15 16 17 18 18 17 16 15 15 15 16 16 16 17 17 17 17 16
28 27 26 26 24 22 21 21 19 18 17 17 16 15 15 15 14 14 13 12 11 11 9 8 8 7 6 6 6 6 7 7 8 9 10 12 13 14 15 16 16 15 15 16 16 15 14 13 13 13 12 12 13 13 14 14 15 16 17 17 18 18 18 18 18 18 18 18 19 19 19 18 18 17
29 28 28 27 26 24 23 22 20 19 19 19 18 17 16 16 15 15 15 14 14 13 11 9 8 8 8 8 8 9 10 10 11 12 13 14 14 15 15 15 15 14 14 14 14 14 14 13 13 12 12 13 13 14 14 15 15 16 16 16 17 18 18 19 20 20 20 20 20 20 20 20 19 19
31 30 30 29 27 26 25 24 23 22 21 20 20 19 18 17 16 17 17 17 16 16 15 13 12 11 11 11 11 11 11 12 13 14 15 15 15 16 15 13 12 13 13 12 12 12 13 13 13 12 13 13 13 14 14 15 16 16 16 17 17 18 18 19 20 20 20 20 20 20 19 19 19 19
32 32 31 30 29 28 27 27 26 25 23 22 22 21 20 18 18 18 19 18 17 18 18 17 16 15 14 14 14 12 12 14 15 16 17 17 15 16 16 15 13 12 12 11 11 12 12 12 11 11 12 13 13 14 15 16 16 16 15 15 16 17 19 20 20 21 21 21 21 22 21 21 21 21
33 32 32 31 30 30 30 29 28 27 26 25 24 23 22 20 19 20 20 18 18 18 18 18 18 17 16 16 16 15 13 15 17 18 18 18 17 17 18 18 16 14 12 12 12 13 11 9 8 10 12 13 14 14 14 14 14 13 13 13 14 16 17 19 20 20 21 21 21 22 22 23 23 23
33 32 32 32 31 31 31 31 30 29 28 27 26 25 23 22 22 22 21 19 18 17 18 18 18 17 16 16 16 15 15 16 18 16 15 17 19 19 18 18 17 16 14 13 13 12 11 10 11 14 15 14 13 12 12 13 14 14 14 15 16 17 17 17 17 17 17 17 17 18 18 18 19 19
32 32 32 33 33 33 32 31 31 29 28 28 27 26 25 24 24 23 22 20 18 18 19 19 18 15 15 15 16 17 17 16 15 11 12 16 19 20 19 18 18 17 14 13 13 12 12 13 15 17 18 16 13 12 12 13 14 15 16 17 18 18 17 16 15 14 14 14 14 14 14 15 15 16
31 32 33 33 33 32 31 30 30 29 28 28 28 27 25 25 25 25 23 21 20 19 19 19 16 14 15 17 16 15 13 9 7 8 12 17 19 19 18 17 18 17 12 10 12 14 15 17 18 19 19 17 14 14 14 14 14 15 15 16 16 17 17 17 16 16 16 16 16 16 16 16 17 17
31 32 32 33 33 31 29 27 27 28 29 29 28 27 25 25 25 25 24 23 21 20 20 18 15 14 16 15 11 9 8 6 8 12 15 16 18 17 15 13 15 15 11 8 11 14 17 19 20 19 18 17 15 15 15 15 15 15 15 16 16 17 18 18 19 20 21 22 22 22 22 22 22 23
31 32 32 33 32 29 25 23 25 28 29 29 28 27 25 24 24 24 24 23 21 20 19 15 11 12 14 13 11 12 12 12 13 15 15 14 15 16 14 14 15 15 13 11 12 15 18 19 20 19 17 15 15 15 16 16 17 17 17 18 20 21 22 22 22 23 24 25 25 25 25 25 25 26
33 35 33 31 28 24 21 20 24 28 30 29 28 26 24 24 24 24 24 23 21 19 16 12 10 15 18 18 18 19 17 14 13 14 14 13 14 14 15 16 17 16 15 14 14 16 18 18 17 17 16 14 14 16 18 19 20 20 21 22 22 22 22 22 21 21 21 22 22 23 23 23 23 23
36 36 32 28 25 21 20 19 22 27 31 30 28 26 25 24 25 25 25 24 21 19 17 15 15 19 21 20 20 20 17 15 14 14 14 13 13 14 14 15 15 14 14 14 12 12 15 15 15 17 17 15 16 18 19 20 21 21 21 20 19 18 17 17 17 17 17 17 18 18 19 19 19 19
36 33 30 28 24 22 22 20 20 25 30 30 27 26 25 24 25 25 24 23 21 19 18 17 16 17 18 18 18 18 16 15 15 13 13 12 12 12 12 12 14 13 13 13 10 9 12 15 16 18 19 17 18 20 20 20 19 17 16 15 15 15 15 16 16 16 16 17 17 17 17 16 17 17
32 29 29 27 24 25 25 21 20 23 27 28 27 25 24 23 23 23 22 20 18 17 16 14 13 14 15 15 16 15 14 14 13 11 11 10 9 9 9 10 12 12 11 12 10 10 13 17 16 18 20 19 20 21 20 17 14 13 14 14 15 15 16 18 19 19 18 18 17 17 16 15 15 15
29 27 28 26 24 27 26 21 21 22 24 25 26 24 22 20 19 19 18 16 15 14 13 11 11 13 12 11 12 12 11 11 9 8 9 9 8 8 7 7 9 10 10 11 10 10 14 17 17 19 20 20 21 21 19 16 14 15 16 16 15 17 18 20 21 22 22 21 20 18 17 16 16 16
29 28 28 26 26 27 26 22 21 21 22 24 25 23 20 18 18 18 17 15 14 12 10 10 10 11 10 9 10 10 9 8 8 9 11 10 9 9 8 7 7 9 10 11 8 8 14 17 17 18 19 19 20 20 17 17 18 19 18 18 18 19 20 20 22 23 23 22 21 19 18 17 18 18
28 28 27 26 26 27 25 22 20 20 21 23 24 22 20 19 19 18 17 16 14 12 9 10 11 10 9 9 10 10 9 9 10 12 12 11 10 10 9 7 5 5 8 9 9 9 13 16 16 16 14 11 13 18 19 19 21 21 21 22 22 21 20 20 21 22 22 22 20 19 18 18 19 20
26 27 27 27 26 25 23 21 19 18 19 21 23 22 21 21 19 18 17 15 13 10 8 9 10 10 8 8 9 9 10 12 12 12 11 9 8 8 6 6 5 6 8 11 11 10 12 14 16 17 13 8 10 17 22 23 23 23 23 23 23 22 21 21 21 21 21 20 19 18 19 19 19 21
26 26 27 27 25 23 21 18 16 16 17 19 21 22 21 20 19 17 15 14 12 9 8 10 10 9 8 8 9 10 12 12 11 10 9 8 7 6 6 6 8 10 12 12 11 11 13 15 17 18 16 12 12 17 22 25 25 24 23 23 24 23 23 23 23 22 20 19 18 19 21 21 21 21
26 26 27 26 24 22 20 17 16 16 16 17 19 19 19 19 17 14 13 13 12 11 11 11 10 9 9 9 10 11 11 10 9 9 9 8 7 6 7 7 9 11 13 12 11 13 14 15 16 16 16 14 13 16 18 21 25 26 24 24 25 25 24 24 24 23 21 21 22 22 22 22 22 23
28 27 26 25 22 20 18 16 16 16 16 16 17 18 18 17 14 12 13 14 13 13 12 11 11 10 10 10 10 10 10 10 9 10 9 8 7 6 7 8 10 12 13 12 12 14 14 15 15 15 16 16 14 13 13 17 23 27 28 28 28 27 26 26 25 26 25 24 25 24 24 24 24 25
28 27 25 22 20 17 15 15 16 16 15 15 16 17 17 15 13 13 15 15 15 15 14 13 12 12 11 10 11 12 12 11 10 10 9 8 7 6 8 10 12 13 13 13 13 14 14 14 14 14 16 17 15 13 13 16 22 27 29 29 29 30 30 28 28 27 26 25 26 27 27 27 27 28
26 24 21 19 17 16 15 15 16 16 16 16 16 15 14 14 14 15 16 16 16 16 14 13 12 11 10 10 11 12 11 10 9 9 8 7 7 7 10 12 14 13 12 13 14 12 11 13 14 15 16 16 16 17 19 20 24 27 28 28 29 31 31 28 27 27 27 27 28 28 28 29 29 30
23 20 18 17 16 17 17 17 17 17 17 16 15 13 13 14 15 16 16 17 16 15 13 11 11 10 11 11 11 10 10 9 8 8 8 8 9 9 11 13 15 14 12 12 12 11 11 13 14 14 16 17 18 20 22 22 24 28 30 30 29 28 27 27 27 27 28 29 28 28 29 29 29 30
21 19 17 17 17 17 17 17 18 17 17 16 14 13 14 15 15 15 15 15 13 12 10 10 10 11 12 11 10 9 9 8 7 8 8 9 10 11 12 13 15 14 13 11 10 11 12 13 13 13 15 18 19 21 22 22 24 28 31 31 28 25 26 28 29 28 29 29 28 29 30 30 28 29
21 20 20 20 19 19 19 18 18 17 16 15 15 15 15 15 15 15 14 13 12 11 10 10 11 12 12 11 10 9 9 8 8 8 9 9 10 11 11 12 13 12 12 11 12 13 13 12 12 13 16 18 21 22 22 22 25 28 29 29 27 26 27 29 29 30 32 30 27 27 28 28 26 27
25 24 24 23 22 20 20 19 18 18 17 16 16 16 16 16 15 15 14 13 12 11 11 11 11 11 10 10 10 10 9 9 8 9 9 9 10 11 11 11 11 10 10 12 13 13 12 12 13 15 17 18 19 19 19 21 25 26 26 26 26 26 27 29 30 31 33 31 26 24 25 25 24 25
28 27 25 24 23 22 21 21 21 20 19 19 18 17 16 15 14 14 13 12 11 11 11 11 10 10 10 11 10 10 10 9 9 9 9 10 10 11 10 9 9 9 10 12 13 12 12 14 16 17 18 18 18 18 17 17 21 24 25 25 24 25 27 31 31 32 32 30 27 24 25 26 26 27
28 28 26 24 24 23 23 22 22 21 21 21 20 18 17 15 14 14 13 13 12 11 11 11 11 11 11 11 10 10 10 9 9 9 10 10 10 9 7 7 8 9 10 12 12 13 13 15 17 18 18 18 17 16 16 15 17 20 24 26 25 25 27 30 32 32 31 28 25 24 27 28 27 26
28 27 26 25 25 24 23 22 22 22 21 21 20 19 17 16 15 15 14 12 12 12 12 11 11 11 10 9 9 9 8 8 9 9 9 8 7 7 6 6 8 9 10 11 12 13 13 15 17 15 12 11 10 9 12 17 18 16 20 26 28 27 28 31 31 29 27 24 23 24 26 28 29 28
27 27 26 26 26 26 24 23 22 22 21 19 18 17 16 15 15 14 12 11 11 11 10 10 10 10 9 9 9 9 8 8 9 9 9 8 6 6 6 7 8 10 11 12 12 12 13 16 17 13 8 7 6 5 11 20 22 18 18 24 29 30 30 29 27 25 23 22 23 25 26 27 30 32
28 27 26 26 26 26 25 24 23 21 20 18 16 16 15 14 13 12 11 10 10 9 9 9 9 9 9 9 8 8 9 9 10 10 8 7 6 5 6 8 9 10 12 13 13 12 13 15 17 14 9 6 5 5 9 17 22 23 21 22 27 29 28 24 22 23 23 24 25 26 27 28 31 33
29 28 27 26 27 27 25 24 23 21 19 18 17 16 16 14 13 12 11 10 9 8 8 9 9 8 8 8 8 9 10 11 11 9 8 7 6 6 7 8 9 10 12 13 13 13 14 15 17 17 14 10 10 12 13 16 22 26 27 25 24 26 25 22 22 23 24 26 27 29 30 30 31 32
27 27 27 27 27 26 25 23 21 20 19 18 17 16 15 15 14 13 11 10 10 10 10 9 9 9 9 9 9 10 10 10 9 9 8 6 6 6 7 8 9 10 11 13 14 14 15 16 17 18 18 17 17 18 18 18 21 25 28 29 27 25 24 23 22 22 24 27 29 30 31 32 33 33
26 26 26 27 26 25 23 22 21 20 19 17 17 16 16 15 14 12 11 11 11 11 10 10 9 9 8 9 9 10 10 10 10 10 8 7 6 7 7 8 8 9 10 11 13 15 15 16 17 18 18 19 18 16 13 11 13 18 26 32 32 27 24 22 22 22 25 29 29 28 29 32 35 36
26 26 26 26 25 24 23 22 22 20 19 19 19 18 17 15 14 13 13 13 12 11 10 9 8 8 8 9 11 11 12 12 12 11 9 8 8 8 8 8 8 9 9 11 13 15 16 16 16 17 18 19 16 11 8 8 11 17 25 32 33 30 27 25 24 24 26 27 27 26 26 28 27 26
27 26 26 25 24 23 24 23 22 21 20 20 20 18 17 16 16 15 15 14 12 11 10 9 9 9 10 12 14 14 15 15 14 12 10 9 9 9 9 8 8 9 10 11 13 15 15 15 16 18 19 19 15 10 9 11 14 17 21 25 29 31 31 30 30 29 30 29 26 23 24 25 23 21
27 26 25 25 24 24 25 23 22 22 21 21 19 18 18 18 17 16 15 13 12 11 10 10 10 11 12 14 15 16 16 16 14 12 11 10 10 10 9 8 7 8 10 11 13 15 14 14 15 17 18 18 16 13 12 13 14 17 20 22 25 27 29 30 32 33 34 34 30 24 23 25 26 29
26 25 24 25 25 26 25 23 23 22 21 20 19 19 18 17 16 15 14 13 12 11 11 11 12 13 14 15 16 18 18 16 14 12 11 10 11 10 9 8 7 8 9 10 13 14 14 14 15 17 18 17 15 14 15 16 17 18 20 20 21 23 25 27 28 28 30 33 32 28 27 29 31 33
Wind_Direction
245 246 246 244 242 243 241 233 230 234 238 239 234 226 218 208 193 166 198 237 227 227 233 231 224 219 218 233 247 252 258 252 251 259 268 279 282 280 281 283 288 292 292 292 292 293 294 295 295 294 292 292 293 297 301 299 296 294 293 292 289 286 286 286 288 290 291 291 291 289 288 287 286 285
246 246 246 244 241 243 241 232 228 233 242 244 238 234 229 223 215 198 184 230 227 224 230 224 210 206 216 234 241 242 250 255 265 277 284 289 291 288 286 285 285 286 285 285 285 286 287 289 290 291 291 289 290 292 293 291 289 289 290 290 287 284 283 284 284 285 285 287 288 288 287 286 285 285
245 246 245 243 239 239 238 231 229 235 242 248 244 236 231 228 227 216 196 202 232 226 228 222 210 208 219 233 236 237 245 258 268 273 277 282 285 285 286 286 287 287 286 285 286 287 287 286 287 287 287 286 285 285 286 284 282 281 284 287 286 283 281 282 283 282 282 282 284 286 287 287 285 285
244 245 245 242 239 237 234 230 232 235 239 246 246 242 234 226 229 228 213 211 239 239 233 224 216 219 234 240 237 236 237 257 265 263 278 291 295 294 293 293 293 291 290 289 290 293 294 293 289 285 283 282 281 282 283 283 280 277 278 281 282 281 280 279 279 279 279 279 281 283 284 285 285 285
243 244 244 243 240 237 234 233 234 235 236 241 242 240 236 229 230 233 226 226 242 245 237 228 223 231 247 253 250 251 252 255 259 267 288 303 309 309 306 304 301 296 295 295 295 296 297 296 292 287 284 282 282 283 283 282 280 277 277 277 277 279 280 279 277 277 277 277 278 278 278 279 280 281
242 243 243 243 241 238 237 237 237 236 235 237 238 236 236 234 233 234 234 235 238 242 242 236 232 234 247 260 263 259 256 260 268 280 296 306 310 312 311 308 304 299 297 297 296 296 295 294 292 290 287 284 284 284 282 280 278 276 275 275 276 276 278 279 278 277 277 277 277 276 275 274 274 274
242 242 242 243 242 239 239 240 239 236 235 236 237 237 236 236 235 235 238 240 242 248 252 247 242 245 255 267 270 267 264 270 280 289 297 301 305 310 311 308 304 300 297 294 294 294 292 291 292 294 292 289 288 286 284 281 279 277 276 275 275 276 276 277 277 276 276 275 275 275 274 273 271 270
242 241 242 243 243 240 240 241 239 235 234 234 236 236 234 234 236 236 238 243 249 254 257 254 254 259 268 274 276 275 275 278 285 291 294 296 302 308 308 305 303 302 298 294 292 293 294 296 297 297 296 294 293 291 288 286 284 282 280 278 277 277 277 276 276 275 274 273 272 272 272 272 273 273
243 243 243 244 243 241 239 239 238 235 233 234 235 235 234 233 235 235 236 242 248 252 255 258 263 267 271 276 278 277 280 285 289 290 289 290 298 306 305 300 300 303 303 300 295 293 297 301 302 299 296 295 294 293 290 288 286 284 284 284 283 282 279 277 275 273 271 270 269 269 268 268 270 271
244 244 245 245 243 241 240 238 237 236 234 234 234 235 235 233 232 233 236 241 244 248 253 257 262 266 271 275 277 278 281 286 289 287 286 287 295 306 308 304 303 306 307 306 303 303 302 301 298 295 296 298 298 298 295 291 289 287 287 286 284 283 281 279 278 275 272 270 267 266 265 265 267 269
245 246 246 246 244 242 241 239 237 236 235 235 235 236 237 234 231 231 235 241 243 245 249 252 256 261 266 270 273 278 283 283 283 282 284 291 300 309 311 308 309 312 312 310 309 310 310 306 301 302 306 306 303 300 296 293 294 294 292 289 286 285 285 283 283 281 278 276 272 270 268 267 268 269
245 247 248 247 246 244 243 241 239 238 237 236 235 237 236 234 231 230 234 239 242 245 248 251 256 259 262 266 271 276 277 275 276 279 286 293 303 310 309 306 309 310 310 311 310 311 315 316 315 314 313 310 304 296 290 288 291 290 289 290 292 294 295 294 291 288 285 283 280 276 273 270 269 268
246 248 248 248 248 247 245 243 242 241 241 239 238 237 236 233 231 231 233 235 237 242 246 249 255 259 261 265 267 270 271 270 276 292 301 296 301 305 302 301 307 307 306 308 306 309 315 315 316 315 311 309 307 300 293 290 288 285 283 286 291 295 299 300 299 296 291 288 285 282 279 277 275 274
246 248 249 250 249 248 246 245 243 242 243 243 242 242 240 237 233 231 231 233 235 238 241 246 251 254 260 267 270 271 274 275 282 300 300 294 295 297 295 297 302 302 301 298 297 306 314 314 314 313 308 309 310 305 301 298 294 290 288 289 291 292 294 296 296 296 295 292 290 287 286 284 281 279
246 248 250 250 249 246 244 245 247 246 245 244 244 244 244 242 241 236 232 233 235 236 240 246 249 250 258 270 275 268 263 267 279 287 288 286 286 286 287 291 295 299 301 290 285 301 313 314 311 309 307 308 310 307 305 304 302 301 299 297 295 292 291 292 291 290 291 290 289 288 286 284 282 280
244 247 248 249 249 243 237 246 256 252 246 245 244 244 244 244 244 242 240 240 240 241 243 243 249 261 266 270 271 266 263 269 277 277 274 275 278 278 278 279 285 293 299 294 287 297 310 311 306 305 307 310 309 307 307 308 308 306 303 299 296 293 291 290 288 285 284 285 286 286 286 284 283 282
241 242 242 245 247 239 233 252 265 257 249 247 245 244 242 242 243 243 243 244 247 250 244 234 252 274 270 265 268 270 269 269 268 263 264 273 278 277 275 277 282 288 292 296 295 296 305 308 301 301 309 311 307 306 308 309 308 305 303 299 296 294 292 291 290 287 285 283 283 283 282 282 280 279
238 238 237 243 245 235 231 248 262 257 250 247 244 242 240 240 242 241 240 242 247 249 242 242 263 272 264 262 268 270 267 265 263 265 272 277 275 274 276 279 283 284 288 297 296 288 300 309 300 300 309 310 306 307 307 307 307 306 304 302 300 300 299 297 295 293 290 287 284 281 279 278 277 275
237 237 239 244 241 232 232 246 259 255 249 245 242 240 240 240 242 242 242 244 246 244 245 258 273 269 258 261 268 267 266 266 269 273 275 274 273 277 279 278 281 286 293 299 291 276 295 309 301 299 308 310 307 309 309 308 309 308 307 309 311 310 307 303 300 297 294 291 286 284 282 280 280 279
236 237 240 240 237 231 232 248 262 253 243 243 242 238 238 240 240 240 241 242 244 246 254 266 270 259 255 261 266 266 267 266 268 270 268 269 270 270 270 273 283 294 299 298 289 273 290 307 303 300 308 312 308 309 311 312 315 316 316 317 317 313 308 303 301 299 297 296 293 288 285 285 288 289
233 237 239 238 238 233 232 250 262 246 236 240 240 235 232 232 232 232 232 235 241 250 260 266 260 254 254 254 255 261 264 259 254 249 254 265 264 255 256 269 282 290 294 299 297 279 290 306 306 301 308 311 308 310 314 318 321 321 320 320 318 313 308 302 300 297 296 296 296 292 289 290 295 297
232 237 240 240 239 234 235 251 254 237 231 235 234 232 226 218 218 222 224 233 243 248 254 255 252 250 250 246 242 242 241 240 243 250 261 270 266 258 257 257 270 285 294 304 308 287 291 305 307 304 307 307 305 309 314 318 321 321 321 322 318 313 308 303 299 295 293 294 295 293 292 295 299 300
230 234 236 236 236 235 237 245 244 233 231 231 231 230 219 207 212 221 229 240 245 241 240 241 238 239 239 234 226 222 228 242 255 263 267 268 262 254 251 250 262 285 297 309 314 297 294 303 305 305 306 302 303 310 313 315 318 321 322 321 318 314 311 305 299 295 293 293 293 292 293 297 301 302
222 227 231 232 233 234 234 236 236 234 233 231 230 227 215 209 218 228 233 238 234 227 231 235 235 236 235 227 224 233 250 259 261 262 260 254 246 237 239 255 261 265 286 307 311 298 293 298 302 305 303 289 291 304 309 313 317 321 322 320 317 316 315 310 306 301 296 294 293 294 294 296 299 301
218 222 226 229 229 226 224 225 227 230 233 230 227 226 222 221 228 231 228 222 215 213 220 224 227 229 228 231 239 250 258 257 254 250 241 229 225 228 248 266 260 267 290 310 312 298 293 296 300 303 301 288 281 293 304 311 315 318 319 318 317 318 317 313 308 304 300 298 297 295 293 293 295 298
217 221 224 225 223 217 216 220 222 224 227 225 224 226 225 224 229 229 219 211 209 208 209 211 215 217 222 235 244 246 245 240 232 223 214 212 222 242 266 273 265 276 297 312 311 304 300 299 302 301 296 290 288 292 297 303 311 317 317 316 316 317 317 314 310 307 305 302 298 296 294 294 295 297
216 220 222 222 219 218 219 219 215 216 220 220 219 219 218 221 225 217 205 204 206 203 202 203 207 213 224 233 231 225 221 216 207 201 201 212 233 254 275 284 284 290 299 305 306 304 303 304 307 304 297 293 293 292 288 294 306 313 315 315 317 318 316 313 309 306 305 301 299 299 300 298 298 299
218 218 219 218 215 214 213 208 205 208 211 210 209 212 216 220 216 203 201 203 200 197 196 198 205 216 223 220 210 205 206 203 199 198 205 221 244 265 284 294 294 295 299 301 301 302 303 305 310 311 307 300 292 287 287 292 300 307 311 314 316 317 316 313 308 307 306 304 304 304 303 302 302 301
218 216 214 210 206 202 199 198 199 200 201 202 206 211 216 214 208 203 202 198 194 193 196 201 211 218 213 202 195 196 200 201 201 208 221 237 256 274 288 294 295 294 297 297 296 298 302 306 309 310 309 305 296 292 295 297 299 305 309 309 309 313 316 315 313 312 311 309 308 305 302 301 300 298
210 207 202 196 193 193 193 193 192 192 195 199 203 207 209 208 205 202 198 193 193 197 202 209 216 212 199 192 191 194 203 209 214 226 242 256 268 279 288 292 291 292 294 293 292 297 301 304 307 307 309 310 306 302 304 302 299 305 310 308 305 308 315 318 318 317 314 310 307 305 302 300 298 297
193 189 184 181 181 182 183 184 186 189 192 195 197 199 198 195 193 192 193 195 198 203 208 211 211 204 197 194 195 201 214 222 226 235 248 262 274 282 286 287 287 291 296 295 294 301 304 304 304 307 312 314 310 309 311 306 298 301 307 309 306 305 311 316 317 318 317 312 305 303 302 301 298 296
179 176 171 170 172 175 176 178 181 184 187 189 191 191 186 182 184 187 192 198 203 208 211 211 207 203 202 203 205 213 225 231 233 238 246 257 268 274 276 279 285 293 299 299 300 305 307 305 305 310 314 312 310 311 312 306 301 301 303 308 310 308 312 317 316 317 320 315 304 300 300 298 295 292
168 167 166 166 171 175 178 178 178 179 182 184 185 184 183 184 187 190 195 204 210 213 216 215 212 209 212 217 219 223 233 239 237 237 242 249 257 263 268 274 283 295 303 305 309 312 310 308 310 311 311 310 310 313 309 300 302 306 305 305 308 308 314 320 318 317 319 314 303 299 297 294 290 287
165 166 167 168 173 177 178 178 179 180 183 184 183 185 189 192 193 196 205 214 219 222 225 225 221 218 223 228 230 235 242 241 234 232 236 242 249 258 265 273 284 297 303 308 315 319 317 318 318 316 317 318 317 319 315 300 299 309 312 309 306 307 313 319 319 317 319 314 305 300 298 294 290 287
165 167 167 167 173 177 177 179 183 185 186 187 188 190 194 196 200 207 215 221 225 229 232 230 227 226 229 235 238 241 241 236 230 229 231 239 250 258 265 276 289 300 306 311 319 323 323 325 326 323 324 327 322 321 327 322 309 309 312 311 310 309 312 317 318 317 316 312 304 300 300 298 294 291
166 169 169 168 172 175 177 181 186 189 190 191 192 193 195 199 206 214 220 222 224 226 226 227 227 228 230 232 231 229 230 230 228 228 234 247 257 260 267 281 293 302 309 314 321 325 325 328 329 323 318 322 318 311 325 331 326 315 307 308 312 314 313 316 319 315 310 307 303 300 300 298 296 296
164 170 173 173 174 177 180 184 189 192 194 193 191 192 197 203 210 215 217 216 216 217 220 223 223 221 218 213 211 215 222 227 230 236 246 252 250 251 270 290 299 305 311 315 320 326 327 327 328 322 310 314 316 296 308 321 327 329 319 309 310 315 317 316 316 312 306 303 300 298 296 294 294 295
165 170 174 175 177 181 184 188 191 193 193 191 189 193 201 206 208 207 203 201 203 205 207 208 206 204 205 204 208 217 224 231 238 243 242 235 235 256 282 296 302 306 311 315 319 325 327 326 325 323 315 306 302 301 308 313 317 328 334 322 311 314 319 317 312 310 308 305 302 300 297 292 292 296
170 174 177 179 181 184 187 190 192 191 188 188 190 194 197 196 191 187 183 181 183 184 187 189 191 196 204 212 219 227 232 236 237 231 218 218 241 272 286 293 301 307 311 315 319 324 326 327 327 325 319 305 294 298 298 295 301 318 333 333 321 316 318 317 313 311 310 308 306 305 303 300 299 302
175 179 182 183 184 187 189 190 190 188 186 188 189 188 187 182 177 175 175 176 177 178 179 185 191 199 210 218 224 229 233 233 225 215 212 225 251 271 278 285 297 306 310 315 319 323 325 327 329 327 322 315 310 308 302 294 298 314 328 333 330 325 321 317 314 310 307 309 311 310 309 310 311 312
179 180 183 186 187 188 187 185 186 186 186 185 181 177 177 177 176 179 181 181 181 181 182 189 199 208 218 226 231 235 234 225 216 214 222 235 249 263 273 281 292 302 307 309 313 319 323 325 327 329 326 324 325 323 312 300 303 313 322 330 335 335 331 326 321 314 311 313 313 309 309 313 315 316
181 181 184 187 188 186 183 182 183 183 180 177 173 172 175 179 181 184 184 182 183 186 191 202 214 225 235 241 244 242 234 224 218 219 226 237 249 260 269 275 286 298 304 306 310 318 323 325 328 331 331 331 333 330 309 299 306 312 318 327 334 338 340 338 333 328 324 321 314 305 303 309 313 313
180 181 184 185 184 181 180 180 180 177 173 172 174 176 180 183 184 185 185 185 188 196 205 217 225 231 241 247 247 242 232 224 220 220 227 241 253 261 267 273 282 296 305 310 316 322 326 328 332 335 334 334 337 328 301 300 309 312 315 322 329 333 337 339 339 339 338 335 327 315 307 308 308 307
178 181 182 181 179 178 177 176 175 174 173 174 178 183 187 187 187 188 190 193 198 204 210 218 222 227 238 246 245 237 228 222 222 225 232 246 257 263 268 274 282 296 308 316 323 326 328 331 336 337 335 335 336 327 310 307 313 315 317 320 323 325 329 334 337 339 339 339 339 333 324 320 316 313
176 178 179 177 176 175 175 174 174 174 176 179 183 187 190 191 191 193 196 200 204 205 208 214 221 230 241 246 242 233 225 222 224 230 240 252 260 262 265 272 283 299 313 323 327 329 332 336 340 340 337 335 336 332 324 321 320 318 318 320 320 321 325 328 329 329 329 332 337 338 333 331 329 326